EcAMSat (43019 NORAD) Tracking and Keplerian Element Data

This shows tracking and keplerian element data for the satellite.

Feedback or suggestion? Click here.




ElementValue
Catalog43019
NameEcAMSat
Epoch Orbit31691
Epoch Day336.48510525
Epoch Year2021
RAAN61.7577
Inclination51.6347
Eccentricity0.0007301
Argument of Perigee346.9353
Mean Anonmoly13.1475
Mean Motion16.19233822
Decay Rate0.00947653
L11 43019U 98067NG 21336.48510525 .00947653 11839-4 50375-3 0 9995
L22 43019 51.6347 61.7577 0007301 346.9353 13.1475 16.19233822316910



Live tracking and technical data element details for EcAMSat (NORAD 43019). EcAMSat can be tracked NOW for your location showing map with azimuth and elevation plus other details from your city location.







IsCatalogInMostPopularTable: catalog: 43019, numindb: 624
Update: records affected: 1



GetName: 43019 EcAMSat

Hit Count: updated at: Fri, 02 Dec 2022 12:13:22 GMT